DW7888 Weather Reports


time (UTC)temp
C
wind
direction
speed
KPH
gust
KPH
rain 1hr
cm
rain 24hr
cm
rain mn
cm
humidity
%
barometer
mb
20260507201518 11 112 0.0 0.0 0.15 0.51 0.51 90 1011.2
20260507201007 11 112 0.0 0.0 0.13 0.48 0.48 90 1011.1
20260507200512 12 112 0.0 0.0 0.13 0.48 0.48 89 1011.0
20260507200020 12 111 0.0 0.0 0.10 0.46 0.46 89 1011.0
20260507195512 12 88 0.0 0.0 0.10 0.46 0.46 88 1010.9
20260507195014 12 87 0.0 0.0 0.10 0.46 0.46 87 1011.3
20260507194520 12 157 0.0 0.0 0.05 0.41 0.41 86 1011.3
20260507194009 12 157 0.0 4.8 0.00 0.36 0.36 86 1011.1
20260507193509 12 149 0.0 4.8 0.00 0.36 0.36 85 1011.0
20260507193023 12 149 1.6 4.8 0.00 0.36 0.36 84 1011.3
20260507192509 12 86 0.0 1.6 0.00 0.36 0.36 84 1011.4
20260507192007 12 55 0.0 1.6 0.00 0.36 0.36 83 1011.4
20260507191520 12 146 0.0 1.6 0.00 0.36 0.36 82 1011.3
20260507191010 12 146 0.0 4.8 0.00 0.36 0.36 80 1011.4
20260507190509 12 122 0.0 6.4 0.00 0.36 0.36 79 1011.5
20260507190024 12 149 0.0 6.4 0.00 0.36 0.36 79 1011.4
20260507185509 12 105 0.0 6.4 0.00 0.36 0.36 79 1011.4
20260507185008 12 194 0.0 6.4 0.00 0.36 0.36 76 1011.5
20260507184522 12 130 0.0 6.4 0.00 0.36 0.36 76 1011.4
20260507184010 13 5 1.6 6.4 0.00 0.36 0.36 76 1011.4
20260507183507 13 148 1.6 6.4 0.00 0.36 0.36 76 1011.3
20260507183022 13 199 0.0 8.0 0.00 0.36 0.36 76 1011.3
20260507182509 13 136 1.6 8.0 0.00 0.36 0.36 76 1011.3
20260507182007 13 153 0.0 8.0 0.00 0.36 0.36 76 1011.5
20260507181524 13 198 1.6 8.0 0.00 0.36 0.36 77 1011.6
20260507181017 13 134 3.2 11.3 0.00 0.36 0.36 78 1011.5
20260507180506 13 128 0.0 11.3 0.00 0.36 0.36 77 1011.5
20260507180003 13 205 3.2 11.3 0.00 0.36 0.36 79 1011.5
20260507175511 13 163 3.2 11.3 0.00 0.36 0.36 78 1011.4
20260507175006 13 136 0.0 8.0 0.00 0.36 0.36 79 1011.5
20260507174513 13 11 0.0 8.0 0.00 0.36 0.36 79 1011.6
20260507174002 13 225 0.0 4.8 0.00 0.36 0.36 77 1011.6
20260507173511 13 225 0.0 8.0 0.00 0.36 0.36 77 1011.7
20260507173006 13 301 0.0 8.0 0.00 0.36 0.36 78 1011.8
20260507172503 13 294 0.0 8.0 0.00 0.36 0.36 81 1012.0
20260507172010 13 129 0.0 8.0 0.00 0.36 0.36 81 1011.8
20260507171505 13 184 0.0 9.7 0.00 0.36 0.36 82 1011.7
20260507171007 13 105 3.2 9.7 0.00 0.36 0.36 82 1011.8
20260507170509 13 188 1.6 9.7 0.00 0.36 0.36 84 1012.0
20260507170006 12 144 0.0 6.4 0.00 0.36 0.36 84 1012.0
20260507165510 12 295 0.0 6.4 0.00 0.36 0.36 84 1012.1
20260507165007 12 155 0.0 6.4 0.00 0.36 0.36 86 1012.2
20260507164507 12 194 1.6 6.4 0.00 0.36 0.36 86 1012.3
20260507164006 12 21 0.0 6.4 0.00 0.36 0.36 85 1012.3
20260507163508 12 9 0.0 6.4 0.00 0.36 0.36 86 1012.3
20260507163007 12 266 1.6 9.7 0.00 0.36 0.36 86 1012.1
20260507162506 12 312 0.0 9.7 0.00 0.36 0.36 86 1012.4
20260507162008 12 160 0.0 4.8 0.00 0.36 0.36 86 1012.4
20260507161509 12 275 0.0 4.8 0.00 0.36 0.36 86 1012.1
20260507161010 12 232 0.0 3.2 0.00 0.36 0.36 86 1012.3
20260507160512 12 169 0.0 6.4 0.00 0.36 0.36 86 1012.3
20260507160031 12 324 0.0 6.4 0.00 0.36 0.36 86 1012.4
20260507155506 12 5 0.0 8.0 0.00 0.36 0.36 86 1012.4
20260507155010 12 27 0.0 8.0 0.00 0.36 0.36 86 1012.4
20260507154510 12 5 0.0 9.7 0.00 0.36 0.36 85 1012.4
20260507154009 12 302 0.0 9.7 0.00 0.36 0.36 84 1012.3
20260507153511 12 22 0.0 4.8 0.00 0.36 0.36 84 1012.3
20260507153010 12 32 0.0 4.8 0.00 0.36 0.36 83 1012.4
20260507152508 13 335 1.6 4.8 0.00 0.36 0.36 82 1012.4
20260507152008 13 308 0.0 9.7 0.00 0.36 0.36 83 1012.3
20260507151511 13 32 0.0 9.7 0.00 0.36 0.36 82 1012.1
20260507151007 13 127 0.0 6.4 0.00 0.36 0.36 83 1012.2
20260507150512 13 64 0.0 6.4 0.00 0.36 0.36 83 1012.2
20260507150011 13 291 0.0 6.4 0.00 0.36 0.36 82 1012.4
20260507145507 13 281 0.0 8.0 0.00 0.36 0.36 84 1012.3
20260507145016 13 172 0.0 9.7 0.00 0.36 0.36 83 1012.3
20260507144512 13 5 3.2 9.7 0.00 0.38 0.36 82 1012.4
20260507144010 13 332 0.0 4.8 0.00 0.38 0.36 84 1012.2
20260507143508 13 54 0.0 4.8 0.00 0.38 0.36 84 1011.9
20260507143011 13 5 0.0 4.8 0.00 0.43 0.36 84 1012.1
20260507142509 13 302 0.0 6.4 0.00 0.46 0.36 85 1012.2
20260507142009 13 307 0.0 6.4 0.00 0.48 0.36 84 1012.2
20260507141514 13 30 0.0 6.4 0.00 0.48 0.36 85 1012.3
20260507141013 13 350 0.0 6.4 0.00 0.53 0.36 85 1012.3
20260507140502 13 34 0.0 6.4 0.00 0.56 0.36 86 1012.4
20260507140031 13 292 0.0 6.4 0.00 0.58 0.36 86 1012.5
20260507135508 13 167 0.0 6.4 0.00 0.58 0.36 87 1012.4
20260507135009 13 49 0.0 4.8 0.00 0.58 0.36 88 1012.4
20260507134516 13 28 0.0 3.2 0.00 0.61 0.36 87 1012.4
20260507134009 13 5 0.0 6.4 0.00 0.61 0.36 87 1012.7
20260507133506 13 40 0.0 6.4 0.00 0.61 0.36 87 1012.5
20260507133016 13 38 3.2 8.0 0.00 0.61 0.36 87 1012.2
20260507132508 13 297 0.0 8.0 0.00 0.61 0.36 89 1012.1
20260507132005 13 25 1.6 8.0 0.00 0.61 0.36 89 1012.2
20260507131534 13 256 0.0 4.8 0.00 0.61 0.36 89 1011.8
20260507131010 13 318 0.0 3.2 0.00 0.61 0.36 89 1012.1
20260507130508 13 320 0.0 12.9 0.00 0.61 0.36 90 1012.3
20260507130020 13 297 0.0 12.9 0.00 0.61 0.36 90 1012.2
20260507125509 13 89 0.0 9.7 0.00 0.61 0.36 90 1012.1
20260507125005 13 21 1.6 9.7 0.00 0.61 0.36 91 1012.0
20260507124522 13 275 0.0 4.8 0.00 0.61 0.36 92 1012.1
20260507124010 12 30 0.0 4.8 0.00 0.61 0.36 92 1012.1
20260507123507 12 28 0.0 4.8 0.00 0.61 0.36 91 1011.9
20260507123028 12 348 0.0 3.2 0.00 0.61 0.36 92 1012.0
20260507122517 12 328 0.0 6.4 0.00 0.61 0.36 92 1012.1
20260507122006 12 311 0.0 6.4 0.00 0.61 0.36 92 1012.0
20260507121522 12 326 0.0 4.8 0.00 0.61 0.36 92 1012.0
20260507121011 12 34 0.0 4.8 0.00 0.61 0.36 92 1011.8
20260507120504 12 333 0.0 3.2 0.00 0.61 0.36 92 1011.8
20260507120029 12 336 0.0 3.2 0.00 0.61 0.36 92 1011.8
20260507115503 12 303 0.0 0.0 0.00 0.61 0.36 93 1012.0
20260507115006 12 303 0.0 0.0 0.00 0.61 0.36 92 1012.0
20260507114504 12 317 0.0 0.0 0.00 0.61 0.36 92 1012.0
20260507114003 12 309 0.0 0.0 0.00 0.61 0.36 93 1012.2
20260507113508 12 309 0.0 0.0 0.00 0.61 0.36 93 1012.1
20260507113004 12 309 0.0 0.0 0.03 0.61 0.36 93 1012.0
20260507112504 12 309 0.0 0.0 0.03 0.61 0.36 92 1011.9
20260507112011 12 309 0.0 0.0 0.03 0.61 0.36 92 1011.8
20260507111506 12 167 0.0 0.0 0.03 0.61 0.36 92 1011.5
20260507111007 12 42 0.0 0.0 0.03 0.61 0.36 92 1011.5
20260507110506 12 42 0.0 0.0 0.03 0.61 0.36 92 1011.6
20260507110004 12 279 0.0 0.0 0.03 0.61 0.36 92 1011.8
20260507105504 12 281 0.0 0.0 0.03 0.61 0.36 92 1011.7
20260507105009 12 281 0.0 0.0 0.03 0.61 0.36 92 1011.7
20260507104506 12 281 0.0 1.6 0.03 0.61 0.36 92 1011.5
20260507104006 12 281 0.0 1.6 0.03 0.61 0.36 92 1011.4
20260507103507 12 257 0.0 3.2 0.03 0.61 0.36 92 1011.4
20260507103026 12 325 0.0 3.2 0.00 0.58 0.33 92 1011.3
20260507102503 12 34 0.0 4.8 0.00 0.58 0.33 92 1011.2
20260507102010 12 20 0.0 4.8 0.03 0.58 0.33 92 1011.1
20260507101503 12 11 0.0 4.8 0.13 0.58 0.33 92 1010.8
20260507101011 13 221 0.0 8.0 0.18 0.58 0.33 92 1010.9
20260507100509 13 309 0.0 8.0 0.18 0.58 0.33 92 1011.1
20260507100009 13 305 0.0 4.8 0.20 0.58 0.33 92 1011.3
20260507095506 13 9 0.0 3.2 0.23 0.58 0.33 93 1011.3
20260507095011 13 26 0.0 6.4 0.25 0.58 0.33 92 1011.4
20260507094504 13 39 0.0 6.4 0.28 0.58 0.33 92 1011.4
20260507094007 13 67 0.0 6.4 0.30 0.58 0.33 92 1011.2
20260507093507 13 49 0.0 4.8 0.30 0.58 0.33 92 1011.3
20260507093005 13 164 0.0 3.2 0.30 0.58 0.33 92 1011.5
20260507092512 13 276 0.0 6.4 0.30 0.58 0.33 92 1011.4
20260507092010 13 352 0.0 6.4 0.30 0.56 0.30 92 1011.3
20260507091505 14 350 0.0 8.0 0.20 0.46 0.20 91 1011.1
20260507091008 14 347 1.6 8.0 0.15 0.41 0.15 91 1011.2
20260507090512 14 327 0.0 12.9 0.15 0.41 0.15 91 1011.0
20260507090009 15 269 3.2 12.9 0.13 0.38 0.13 90 1010.9
20260507085506 15 273 0.0 8.0 0.10 0.36 0.10 90 1011.0
20260507085003 15 312 1.6 11.3 0.08 0.33 0.08 89 1011.0
20260507084514 16 333 1.6 16.1 0.05 0.30 0.05 89 1010.9
20260507084007 16 339 1.6 16.1 0.03 0.28 0.03 89 1010.7
20260507083503 17 53 3.2 12.9 0.03 0.28 0.03 88 1010.8
20260507083019 18 301 3.2 11.3 0.03 0.28 0.03 89 1010.4
20260507082506 18 327 3.2 8.0 0.03 0.28 0.03 90 1010.2
20260507082003 18 333 0.0 3.2 0.00 0.25 0.00 90 1010.1
20260507081511 18 5 0.0 4.8 0.00 0.25 0.00 89 1010.2
20260507081014 19 326 0.0 4.8 0.00 0.25 0.00 89 1010.3
20260507080505 19 334 0.0 4.8 0.00 0.25 0.00 89 1010.4
20260507080015 19 5 0.0 1.6 0.00 0.25 0.00 88 1010.3
20260507075507 19 5 0.0 1.6 0.00 0.25 0.00 88 1010.0
20260507075003 19 5 0.0 1.6 0.00 0.25 0.00 88 1009.9
20260507074530 19 5 0.0 1.6 0.00 0.25 0.00 87 1009.6
20260507074008 19 9 0.0 4.8 0.00 0.25 0.00 87 1009.4
20260507073503 19 336 0.0 4.8 0.00 0.25 0.00 87 1009.7
20260507073012 19 338 0.0 4.8 0.00 0.25 0.00 87 1009.7
20260507072509 20 54 0.0 1.6 0.00 0.25 0.00 87 1009.7
20260507072003 20 54 0.0 4.8 0.00 0.25 0.00 87 1009.6
20260507071517 20 54 0.0 4.8 0.00 0.25 0.00 86 1009.7
20260507071009 20 54 0.0 4.8 0.00 0.25 0.00 86 1009.8
20260507070504 20 338 0.0 4.8 0.00 0.25 0.00 86 1009.9
20260507070021 20 197 0.0 4.8 0.00 0.25 0.00 85 1009.6
20260507065508 20 133 0.0 4.8 0.00 0.25 0.00 85 1009.5
20260507065003 20 57 0.0 4.8 0.00 0.25 0.00 85 1009.6
20260507064518 20 167 0.0 1.6 0.00 0.25 0.00 85 1009.4
20260507064010 20 26 0.0 1.6 0.00 0.25 0.00 85 1009.6
20260507063506 20 68 0.0 1.6 0.00 0.25 0.00 85 1009.6
20260507063028 20 59 0.0 1.6 0.00 0.25 0.00 84 1009.4
20260507062509 20 327 0.0 3.2 0.00 0.25 0.00 84 1009.2
20260507062006 20 330 0.0 3.2 0.00 0.25 0.00 84 1009.2
20260507061516 20 82 0.0 1.6 0.00 0.25 0.00 85 1009.1
20260507061013 20 89 0.0 3.2 0.00 0.25 0.00 85 1009.0
20260507060503 20 142 0.0 3.2 0.00 0.25 0.00 85 1009.0
20260507060029 20 117 0.0 1.6 0.00 0.25 0.00 85 1009.0
20260507055509 20 132 0.0 3.2 0.00 0.25 0.00 84 1008.9
20260507055005 20 182 0.0 3.2 0.00 0.25 0.00 84 1009.0
20260507054532 20 144 0.0 3.2 0.00 0.25 0.00 84 1009.2
20260507054009 20 173 0.0 3.2 0.00 0.25 0.00 84 1009.4
20260507053507 20 92 0.0 3.2 0.00 0.25 0.00 84 1009.1
20260507053030 20 126 0.0 3.2 0.00 0.25 0.00 84 1009.1
20260507052511 20 223 0.0 11.3 0.00 0.25 0.00 84 1009.2
20260507052010 20 184 0.0 11.3 0.00 0.25 0.00 84 1009.3
20260507051520 20 198 0.0 4.8 0.00 0.25 0.00 84 1009.4
20260507051016 20 169 0.0 4.8 0.00 0.25 0.00 84 1009.7
20260507050508 20 163 0.0 6.4 0.00 0.25 0.00 84 1009.8
20260507050046 20 123 0.0 6.4 0.00 0.25 0.00 84 1010.0
20260507045511 20 130 0.0 6.4 0.00 0.25 0.00 84 1010.2
20260507045008 20 5 1.6 6.4 0.00 0.25 0.00 84 1010.3
20260507044525 20 75 0.0 6.4 0.00 0.25 0.00 84 1010.4
20260507044010 20 203 0.0 6.4 0.00 0.25 0.00 84 1010.5
20260507043505 20 43 0.0 6.4 0.00 0.25 0.00 84 1010.4
20260507043028 20 226 1.6 8.0 0.00 0.25 0.00 84 1010.3
20260507042509 20 224 0.0 8.0 0.00 0.25 0.00 84 1010.6
20260507042007 20 276 0.0 3.2 0.00 0.25 0.00 85 1010.6
20260507041527 20 140 0.0 3.2 0.00 0.25 0.00 85 1010.6
20260507041010 20 132 0.0 4.8 0.00 0.25 0.00 85 1010.5
20260507040512 20 96 1.6 4.8 0.00 0.25 0.00 85 1010.2
20260507040026 20 91 0.0 4.8 0.00 0.25 0.00 85 1010.2
20260507035510 20 91 0.0 4.8 0.00 0.25 0.25 85 1010.3
20260507035007 20 76 0.0 3.2 0.00 0.25 0.25 85 1010.3
20260507034533 20 267 0.0 3.2 0.00 0.25 0.25 85 1010.5
20260507034017 20 194 0.0 3.2 0.00 0.25 0.25 85 1010.7
20260507033508 20 19 0.0 4.8 0.00 0.25 0.25 85 1010.7
20260507033031 20 309 0.0 4.8 0.00 0.25 0.25 85 1010.5
20260507032507 20 93 0.0 4.8 0.00 0.25 0.25 85 1010.4
20260507032007 20 147 0.0 6.4 0.00 0.25 0.25 84 1010.1
20260507031532 20 91 1.6 6.4 0.00 0.25 0.25 84 1010.1
20260507031010 20 175 0.0 9.7 0.00 0.25 0.25 85 1010.0
20260507030510 20 127 0.0 9.7 0.00 0.25 0.25 85 1009.9
20260507030033 20 167 0.0 4.8 0.00 0.25 0.25 85 1010.0
20260507025505 20 143 0.0 4.8 0.00 0.25 0.25 85 1009.9
20260507025002 20 172 0.0 6.4 0.00 0.25 0.25 84 1010.0
20260507024510 20 199 0.0 6.4 0.00 0.25 0.25 84 1009.7
20260507024004 20 134 0.0 11.3 0.00 0.25 0.25 84 1009.8
20260507023505 20 100 1.6 11.3 0.00 0.25 0.25 84 1009.9
20260507023006 20 180 1.6 11.3 0.00 0.25 0.25 84 1010.0
20260507022505 20 145 1.6 9.7 0.00 0.25 0.25 84 1009.9
20260507022002 20 161 1.6 6.4 0.00 0.25 0.25 84 1010.1
20260507021517 20 159 0.0 11.3 0.00 0.25 0.25 84 1010.1
20260507021004 20 163 0.0 11.3 0.00 0.25 0.25 84 1010.2
20260507020503 20 167 0.0 6.4 0.00 0.25 0.25 84 1010.3
20260507020006 20 209 0.0 6.4 0.00 0.25 0.25 84 1010.4
20260507015506 20 178 1.6 4.8 0.00 0.25 0.25 84 1010.4
20260507015001 20 188 0.0 8.0 0.00 0.25 0.25 84 1010.4
20260507014507 20 89 0.0 6.4 0.00 0.25 0.25 83 1010.5
20260507014013 20 189 0.0 3.2 0.00 0.25 0.25 83 1010.6
20260507013502 20 119 0.0 4.8 0.00 0.25 0.25 83 1010.4
20260507013010 20 177 0.0 4.8 0.00 0.25 0.25 83 1010.5
20260507012506 20 126 0.0 8.0 0.00 0.25 0.25 83 1010.4
20260507012004 20 155 1.6 8.0 0.00 0.25 0.25 83 1010.3
20260507011516 20 150 1.6 6.4 0.00 0.25 0.25 84 1010.3
20260507011004 20 158 1.6 4.8 0.00 0.25 0.25 84 1010.3
20260507010510 20 193 0.0 3.2 0.00 0.25 0.25 84 1010.3
20260507010026 20 163 0.0 3.2 0.00 0.25 0.25 84 1010.2
20260507005508 20 161 0.0 3.2 0.00 0.25 0.25 84 1010.0
20260507005005 20 137 0.0 3.2 0.00 0.25 0.25 84 1010.0
20260507004516 20 218 0.0 3.2 0.00 0.25 0.25 83 1010.1
20260507004007 20 61 0.0 4.8 0.00 0.25 0.25 83 1010.3
20260507003502 20 105 0.0 4.8 0.00 0.25 0.25 83 1010.2
20260507003016 20 159 0.0 1.6 0.00 0.25 0.25 83 1010.4
20260507002509 20 157 0.0 1.6 0.00 0.25 0.25 82 1010.4
20260507002004 20 148 0.0 4.8 0.00 0.25 0.25 82 1010.4
20260507001516 20 86 0.0 4.8 0.00 0.25 0.25 82 1010.4
20260507001007 20 215 0.0 4.8 0.00 0.25 0.25 82 1010.4
20260507000503 20 69 0.0 3.2 0.00 0.25 0.25 81 1010.5
20260507000015 20 93 0.0 3.2 0.00 0.25 0.25 81 1010.5
20260506235508 20 259 0.0 6.4 0.00 0.25 0.25 81 1010.4
20260506235007 20 180 1.6 6.4 0.00 0.25 0.25 80 1010.3
20260506234516 21 125 0.0 4.8 0.00 0.25 0.25 80 1010.2
20260506234006 21 83 0.0 4.8 0.00 0.25 0.25 80 1010.2
20260506233506 21 121 0.0 4.8 0.00 0.25 0.25 80 1010.0
20260506233016 21 112 0.0 6.4 0.00 0.25 0.25 80 1010.0
20260506232508 21 129 0.0 6.4 0.00 0.25 0.25 79 1010.1
20260506232008 21 37 0.0 6.4 0.00 0.25 0.25 79 1010.1
20260506231524 21 205 0.0 6.4 0.00 0.25 0.25 78 1010.0
20260506231008 21 186 1.6 9.7 0.00 0.25 0.25 78 1009.9
20260506230504 21 215 0.0 9.7 0.00 0.25 0.25 78 1010.0
20260506230017 21 119 0.0 4.8 0.00 0.25 0.25 78 1009.9
20260506225509 21 120 0.0 3.2 0.00 0.25 0.25 78 1010.0
20260506225005 21 130 0.0 3.2 0.00 0.25 0.25 78 1010.0
20260506224521 21 186 0.0 4.8 0.00 0.25 0.25 78 1010.0
20260506224007 21 152 0.0 6.4 0.00 0.25 0.25 78 1010.1
20260506223506 21 124 0.0 6.4 0.00 0.25 0.25 77 1010.0
20260506223020 21 79 0.0 6.4 0.00 0.25 0.25 77 1010.1
20260506222509 21 168 1.6 6.4 0.00 0.25 0.25 77 1010.0
20260506222010 21 182 1.6 6.4 0.00 0.25 0.25 77 1010.2
20260506221518 21 148 1.6 6.4 0.00 0.25 0.25 76 1010.2
20260506221007 21 204 1.6 6.4 0.00 0.25 0.25 77 1010.3
20260506220507 21 111 1.6 6.4 0.00 0.25 0.25 76 1010.0
20260506220028 21 108 0.0 4.8 0.00 0.25 0.25 76 1010.0
20260506215508 21 199 0.0 6.4 0.00 0.25 0.25 75 1010.0
20260506215012 21 125 0.0 8.0 0.00 0.25 0.25 76 1010.0
20260506214524 21 185 1.6 8.0 0.00 0.25 0.25 75 1009.9
20260506214006 21 200 1.6 8.0 0.00 0.25 0.25 77 1009.9
20260506213511 21 178 0.0 8.0 0.00 0.25 0.25 76 1010.0
20260506213028 21 343 1.6 8.0 0.00 0.25 0.25 75 1010.1
20260506212505 21 189 3.2 11.3 0.00 0.25 0.25 77 1010.1
20260506212013 21 270 1.6 11.3 0.00 0.25 0.25 77 1010.1
20260506211524 21 242 1.6 6.4 0.00 0.25 0.25 77 1010.3
20260506211006 21 83 1.6 8.0 0.00 0.25 0.25 77 1010.2
20260506210505 21 256 1.6 8.0 0.00 0.25 0.25 76 1010.1
20260506210032 21 265 0.0 9.7 0.00 0.25 0.25 77 1010.2
20260506205505 21 163 1.6 9.7 0.00 0.25 0.25 79 1010.2
20260506205008 21 158 1.6 9.7 0.00 0.25 0.25 78 1010.1
20260506204536 21 238 1.6 6.4 0.00 0.25 0.25 78 1010.2
20260506204006 21 116 1.6 4.8 0.00 0.25 0.25 80 1010.1
20260506203511 21 192 1.6 4.8 0.00 0.25 0.25 81 1010.1
20260506203028 21 130 0.0 4.8 0.00 0.25 0.25 82 1010.1
20260506202505 20 76 0.0 4.8 0.00 0.25 0.25 82 1010.2
20260506202009 20 294 0.0 3.2 0.00 0.25 0.25 83 1010.2